Theta_e
312 312 311 310 309 309 309 309 308 307 307 323 319 326 317 314 313 322 326 326 323 316 311 310 305 308 307 308 307 309 307 305 305 307 307 307 307 308 303 301 305 304 301 302 302 300 300 296 299 299 300 299 301 302 305 306 305 305 302 305 305 306 299 294 296 299 301 302 304 304 305 303 299 299 300 299 294 296 294 293 295 291 292 289 288 285 289
312 312 311 310 309 309 309 309 308 307 307 311 317 322 316 318 318 317 323 329 322 313 300 300 303 307 309 309 307 310 309 309 306 305 306 309 306 306 306 306 306 304 304 303 299 300 294 300 298 298 301 298 304 304 306 307 302 302 300 298 304 295 298 295 290 290 294 296 299 300 303 301 296 296 298 299 299 299 299 299 299 290 292 291 288 283 288
312 312 311 310 309 309 309 308 308 307 307 309 316 320 322 320 317 317 317 324 322 308 312 307 303 306 307 305 304 304 305 306 307 307 304 309 308 310 303 303 305 304 304 302 304 301 299 301 301 298 300 300 305 304 305 305 300 302 305 302 306 298 297 294 287 284 283 283 285 287 289 293 296 299 297 298 297 297 295 290 292 287 292 293 288 287 293
312 312 311 309 308 308 308 308 307 307 307 307 318 323 318 316 301 314 314 316 315 315 318 314 309 307 307 302 307 308 302 304 306 308 304 307 308 308 309 305 307 304 305 303 300 299 301 300 300 302 301 302 302 301 306 303 302 304 306 309 305 297 300 298 294 290 288 291 293 298 298 296 292 294 296 296 298 298 298 295 290 287 291 289 291 292 292
312 312 310 309 308 308 308 308 307 307 307 307 313 322 318 317 310 305 303 313 313 311 312 311 311 305 310 298 306 305 306 304 304 308 307 308 307 306 307 306 307 303 303 302 302 301 301 303 302 298 300 301 302 303 305 305 304 307 305 308 305 301 297 299 298 295 295 297 296 298 297 294 295 294 294 296 296 297 296 291 288 295 291 286 293 295 292
312 311 310 309 309 309 308 308 307 307 307 306 317 319 319 309 316 315 319 310 301 302 303 311 311 311 312 306 309 307 305 306 302 304 306 306 310 308 307 307 305 306 304 303 295 299 300 301 294 302 301 301 303 301 305 303 306 306 304 305 301 298 293 298 297 296 297 298 297 298 297 297 296 295 295 294 296 296 294 294 296 296 289 287 293 295 293
312 311 310 309 309 309 308 308 307 307 306 308 321 316 321 319 316 315 318 311 314 313 313 315 312 308 311 307 308 307 306 305 307 307 303 306 305 309 292 304 306 305 304 305 303 301 298 294 301 300 302 299 300 299 301 305 304 304 302 301 304 298 294 298 297 294 295 297 297 298 296 296 296 296 296 296 295 295 295 295 296 296 294 295 295 295 295
311 311 310 309 309 309 308 308 307 307 306 319 322 325 317 316 316 311 314 315 314 315 313 311 308 307 307 297 305 309 306 306 304 306 308 299 305 305 304 304 303 303 306 306 304 303 304 304 302 304 302 302 301 301 299 296 304 305 302 302 304 297 292 297 298 293 295 297 298 298 297 296 294 295 296 296 296 295 296 296 296 296 295 296 296 295 294
311 311 310 309 309 309 308 308 308 307 307 328 320 320 325 321 323 322 314 308 311 311 310 308 307 306 304 303 308 308 307 308 305 305 310 307 306 304 306 305 301 303 304 304 306 305 306 304 305 305 305 298 301 299 301 302 298 302 301 302 300 301 294 298 297 291 292 297 298 296 296 295 294 294 295 295 295 293 295 292 296 294 293 294 294 293 293
311 310 309 309 309 309 308 308 308 307 309 326 326 321 325 327 326 323 314 309 307 307 310 310 307 302 308 307 307 306 307 312 307 300 305 307 309 308 307 305 307 305 304 306 308 307 307 307 308 307 306 307 305 304 303 300 298 298 298 303 299 299 295 291 293 288 288 297 298 295 295 293 291 293 296 297 297 297 297 298 298 298 298 293 289 292 298
311 310 309 309 309 308 308 308 308 307 313 319 320 323 322 318 320 323 317 306 311 309 308 306 306 312 312 312 307 307 309 308 307 300 297 305 307 309 308 307 308 306 308 308 308 308 308 308 308 308 306 305 304 305 304 304 304 299 299 299 299 301 299 292 296 288 288 296 295 296 291 284 286 299 302 300 296 296 294 294 297 298 299 295 298 298 300
311 310 309 309 309 308 308 308 307 307 308 315 320 322 322 322 321 321 319 303 305 311 308 306 306 315 312 311 309 306 307 307 306 309 307 305 308 309 308 308 309 299 307 309 310 309 308 308 307 308 305 305 305 305 304 302 303 304 302 300 298 297 297 292 296 289 287 292 293 287 282 285 299 303 303 303 300 299 297 297 298 299 299 300 299 299 300
310 309 309 309 309 308 308 308 307 307 307 312 318 318 321 324 320 319 319 313 305 308 304 308 315 315 314 312 308 307 308 308 310 311 310 308 306 307 308 310 306 308 309 309 308 307 304 304 305 305 304 304 304 304 304 304 304 305 303 303 298 293 293 294 291 291 292 289 288 281 284 297 301 302 302 300 301 300 299 297 299 300 299 300 298 300 301
310 309 308 308 308 308 308 308 307 307 307 309 315 321 322 319 317 320 320 311 307 314 312 311 313 312 312 311 309 308 308 308 311 310 308 311 308 306 308 309 312 312 311 310 308 307 303 304 296 299 300 301 301 299 302 305 305 304 303 304 304 299 298 295 291 295 286 287 286 286 294 297 298 298 299 299 295 295 294 288 292 298 300 300 299 300 300
310 309 308 308 308 308 308 307 307 307 307 307 314 321 321 317 316 317 320 318 307 311 314 302 310 313 313 311 310 307 306 308 307 305 308 312 309 310 310 311 312 311 312 307 305 306 300 299 292 291 294 293 289 291 302 298 303 304 303 301 302 301 295 297 291 288 290 287 286 287 286 283 291 299 303 304 303 302 302 296 292 300 302 302 300 298 299
311 309 308 308 308 308 308 307 307 307 307 307 316 321 325 321 319 321 319 317 314 304 308 314 316 314 311 311 311 309 304 301 305 305 305 308 308 311 312 313 312 312 308 307 308 302 300 293 290 289 288 291 297 294 292 296 296 302 305 304 303 303 301 299 293 290 290 288 285 285 283 286 297 300 302 302 302 302 301 295 289 299 302 301 301 300 300
311 309 308 308 308 308 308 307 307 307 307 306 310 317 323 322 319 315 315 316 313 305 316 315 318 318 312 310 313 310 310 303 306 300 299 304 307 309 310 312 313 310 307 306 305 301 295 292 295 294 296 298 294 290 296 294 294 296 301 303 302 301 299 296 293 289 291 289 287 285 288 287 297 302 302 302 304 301 298 285 286 298 302 302 302 300 300
311 309 308 308 308 308 307 307 307 307 307 306 309 313 318 325 322 320 318 313 309 309 314 317 314 311 308 311 310 313 312 311 309 309 305 307 307 306 308 309 307 308 310 301 302 297 295 294 292 291 291 299 299 297 288 294 290 291 293 295 295 296 295 294 290 291 290 288 288 290 290 296 303 302 302 303 303 299 286 283 291 301 303 304 303 302 302
311 310 309 308 308 308 308 307 307 307 307 306 309 317 321 322 322 319 319 313 313 303 313 317 317 313 317 318 317 315 314 312 311 303 301 303 307 310 310 309 309 301 306 299 303 296 294 294 301 298 293 295 299 292 298 292 292 297 297 293 294 294 294 292 293 290 289 290 288 287 290 301 304 304 303 302 298 287 286 297 304 304 302 303 304 302 302
311 310 309 308 308 308 308 307 307 307 307 306 308 313 320 322 322 321 315 315 317 312 314 316 314 311 313 312 312 311 312 311 311 307 304 298 311 310 306 300 306 306 305 305 294 299 296 293 296 300 296 297 299 301 296 297 300 296 295 297 291 293 289 289 289 293 293 290 288 287 284 294 306 303 301 302 290 294 300 303 303 304 303 303 303 303 303
311 310 309 309 309 308 308 307 307 306 306 306 306 311 317 324 321 322 318 316 311 305 309 317 317 315 315 314 316 316 315 311 311 306 308 308 313 308 296 294 302 303 297 300 294 294 295 293 297 297 300 299 299 301 292 293 295 301 299 297 296 299 289 289 292 296 288 288 286 287 295 302 307 302 293 299 301 303 304 303 301 304 304 303 302 303 304
311 310 310 309 309 308 307 306 306 306 306 306 305 312 314 322 323 322 317 316 307 303 309 310 312 315 318 318 318 321 319 316 317 318 314 304 314 309 307 309 309 306 307 307 302 300 302 302 303 295 294 297 303 295 299 293 290 298 303 301 290 300 297 299 291 297 291 289 292 299 303 304 307 306 305 305 306 307 305 305 303 302 302 305 303 303 305
310 310 310 309 309 308 307 306 306 305 305 305 307 315 316 318 320 322 319 311 315 315 316 314 312 311 313 313 315 318 321 321 320 321 320 315 307 311 309 308 307 313 312 312 305 305 305 304 298 302 299 300 296 295 298 297 293 297 293 301 299 305 304 305 299 295 302 302 302 305 303 304 304 306 307 306 306 307 307 305 303 304 304 305 303 304 305
310 310 310 309 309 308 307 306 306 305 305 305 305 309 314 316 315 314 315 315 311 303 307 311 307 300 304 304 309 313 315 318 319 322 324 320 306 305 311 311 313 313 312 314 315 308 304 303 302 303 296 302 301 295 292 292 292 299 298 297 300 303 304 301 295 300 296 290 303 301 302 305 305 304 305 306 306 305 306 305 305 305 306 306 306 306 306
310 310 310 309 309 307 306 305 305 305 305 304 306 310 313 314 318 317 313 303 305 304 298 301 303 309 313 317 317 314 315 317 319 320 320 319 315 309 308 315 316 314 312 314 317 309 303 297 299 299 292 302 301 291 299 294 294 302 294 296 297 297 304 300 300 299 295 293 301 303 304 304 305 305 304 304 305 305 306 307 307 307 307 307 307 307 306
309 310 310 309 308 307 306 306 305 305 304 305 305 310 315 315 319 318 311 309 310 306 296 296 305 312 313 312 311 313 317 317 317 317 316 316 315 315 317 318 317 318 316 315 314 302 300 298 298 297 296 296 308 297 296 300 300 304 299 298 305 304 303 294 298 295 298 300 302 303 304 303 303 304 305 306 306 305 306 307 307 307 306 306 306 307 306
309 309 309 309 308 307 306 305 305 305 304 305 306 312 313 316 320 314 315 314 309 302 302 297 304 311 312 310 312 314 316 317 317 316 314 314 313 317 316 315 314 314 311 309 309 304 301 299 298 298 302 301 305 304 303 301 300 297 295 301 306 301 297 301 299 294 293 294 298 302 294 294 301 303 304 305 307 306 305 306 306 306 305 306 305 306 307
309 309 308 308 307 306 306 305 305 305 304 304 306 309 315 314 318 318 319 317 313 302 304 303 307 310 313 310 313 314 315 315 314 314 313 313 313 314 314 311 312 309 309 305 299 300 299 297 298 302 304 306 303 300 305 304 302 298 298 299 302 298 302 300 295 294 293 300 302 304 303 302 303 305 306 307 307 306 304 304 305 306 306 306 305 305 305
309 308 308 308 307 306 306 305 305 305 305 304 308 312 315 316 317 318 318 317 316 310 305 304 307 307 299 308 313 312 313 314 313 312 313 312 312 312 312 312 311 310 309 306 302 301 300 299 302 299 302 307 302 296 299 293 293 292 297 303 304 306 307 305 304 303 303 304 304 305 303 301 304 305 306 305 307 305 304 305 306 305 306 306 306 305 304
308 308 308 307 307 306 305 305 305 304 305 308 310 311 308 311 317 318 318 317 317 314 302 297 294 295 312 310 309 310 310 312 312 312 312 311 311 312 311 311 311 311 310 304 303 298 300 299 302 306 311 313 303 296 294 296 295 298 304 305 306 307 306 307 308 304 301 306 306 305 305 304 305 306 306 306 306 306 304 305 306 307 307 307 305 305 305
308 308 307 307 306 306 305 305 305 305 304 308 309 302 300 299 309 317 313 316 316 313 305 302 298 302 300 310 313 309 309 310 310 311 311 312 312 312 312 312 312 310 303 304 303 302 299 298 298 303 306 308 303 296 295 294 292 296 302 305 305 306 306 306 308 308 306 306 307 307 306 305 306 305 305 306 306 308 307 306 309 308 307 305 305 305 305
308 307 307 307 306 306 305 305 304 304 307 307 308 307 308 308 312 312 313 313 317 310 300 295 294 295 295 300 310 311 309 310 310 310 312 312 310 311 311 310 310 311 305 303 303 301 299 298 301 303 303 306 301 297 297 295 292 295 302 304 306 306 307 306 306 306 307 307 306 304 303 303 305 303 302 307 307 308 307 307 307 308 308 307 306 306 306
308 307 307 306 306 305 305 305 305 304 307 308 306 306 307 308 307 309 311 318 312 308 310 300 295 296 293 300 309 309 310 310 309 310 308 312 309 310 308 312 311 309 310 303 299 297 303 297 303 299 303 307 300 295 298 295 296 301 302 303 304 305 305 306 306 306 306 306 305 301 300 301 303 305 305 306 306 306 307 306 306 306 306 305 304 304 305
307 307 306 306 306 305 305 305 305 305 305 305 304 307 313 308 309 306 315 318 313 312 304 297 293 293 295 307 301 308 310 305 306 308 301 310 311 310 304 308 309 301 306 301 302 300 302 304 298 300 307 302 305 296 293 298 302 302 303 305 305 305 305 305 305 305 305 306 306 306 305 305 307 308 307 306 306 307 307 307 306 305 304 304 303 304 304
306 306 306 306 305 305 305 304 307 306 305 307 309 315 313 307 308 310 312 314 305 297 297 297 297 293 293 293 292 301 310 307 304 307 301 306 313 307 308 300 304 298 300 309 301 300 297 298 305 297 295 301 297 294 297 300 302 303 303 304 305 305 305 303 304 305 306 306 306 305 306 306 305 304 303 304 304 305 305 305 305 304 303 303 303 303 304
306 305 305 306 305 305 308 306 305 307 306 306 312 311 309 307 306 316 317 317 312 303 296 294 293 291 293 289 290 300 310 305 308 308 306 308 306 309 307 302 296 301 308 304 298 302 297 305 300 295 299 294 293 297 300 303 303 303 304 304 305 304 305 304 305 305 306 307 307 307 306 306 304 303 303 303 304 304 304 304 304 304 303 303 303 303 303
305 305 306 305 307 307 304 305 308 309 311 311 310 309 306 311 315 316 313 310 312 315 306 297 293 294 295 294 300 306 307 297 305 303 306 301 299 302 302 299 296 300 300 297 297 297 303 309 298 295 295 293 296 303 304 304 304 304 304 306 306 307 307 307 307 305 304 305 305 305 304 304 304 304 304 304 304 304 303 303 304 303 302 302 303 302 303
305 306 306 304 305 297 297 303 307 312 308 306 307 308 310 310 300 300 301 298 305 308 303 303 297 303 305 299 293 309 305 300 306 296 300 301 299 297 301 298 298 298 293 295 299 307 300 299 297 295 295 302 304 304 305 305 306 307 307 306 306 306 306 307 307 305 303 302 302 303 303 303 303 303 303 303 304 304 305 305 305 305 304 303 303 304 303
304 305 305 306 302 297 298 307 313 309 311 310 312 303 298 300 298 295 295 298 297 296 298 299 295 300 300 300 300 309 304 301 297 301 296 304 298 294 299 293 298 297 294 294 297 306 295 296 296 296 295 301 301 304 306 306 306 306 307 307 307 307 307 307 307 305 304 303 303 304 304 302 302 302 304 304 304 305 305 304 304 304 304 303 303 303 302
305 302 300 300 300 304 308 310 309 309 308 300 302 299 292 297 293 290 299 293 293 296 300 294 301 300 301 298 299 299 308 302 296 296 297 299 305 296 296 296 298 295 290 290 295 305 295 292 294 294 294 299 301 305 305 306 305 306 308 308 308 308 307 307 306 307 307 306 306 306 306 306 305 304 304 304 303 303 304 304 304 304 304 303 305 302 302
305 305 304 299 306 309 309 309 310 310 301 296 295 294 292 290 294 295 293 291 292 293 302 299 301 299 301 302 302 297 306 310 309 308 305 296 305 303 296 291 300 292 290 290 296 298 296 293 293 292 294 300 301 304 305 305 306 306 307 307 307 307 307 307 307 307 307 306 306 306 306 306 306 305 305 304 304 303 303 303 303 304 303 303 303 303 304
306 307 308 312 310 310 310 308 305 298 297 297 291 287 290 292 294 293 293 289 291 294 298 299 297 299 298 300 301 305 302 308 308 302 299 294 298 296 294 296 296 290 288 295 302 297 294 289 290 291 298 301 303 304 303 302 303 305 306 306 307 307 306 306 306 307 308 307 306 306 306 306 306 305 305 305 304 304 304 304 304 304 303 304 305 303 303
307 307 310 307 306 303 302 295 298 296 288 288 287 286 290 287 290 290 291 294 300 299 301 305 304 307 308 307 303 306 303 309 301 296 297 294 299 298 294 293 292 288 292 301 296 291 290 289 290 294 300 301 302 302 303 305 305 305 306 307 307 308 307 307 306 306 307 306 306 306 305 306 306 306 306 305 305 304 304 303 304 303 303 304 303 304 304
310 309 303 299 297 296 298 287 296 290 288 290 287 282 287 286 289 292 290 293 297 296 302 299 301 300 296 304 301 300 303 306 302 298 297 299 296 291 291 289 290 298 301 293 291 289 290 292 294 298 300 302 302 303 304 305 305 305 305 305 306 306 307 306 306 306 306 307 307 306 306 306 305 305 306 305 305 304 304 304 304 305 305 304 303 302 303
301 297 297 294 291 294 291 285 295 289 284 287 289 288 289 287 291 293 292 300 300 298 302 302 302 301 298 303 303 302 300 297 302 295 291 294 291 292 290 289 293 294 291 288 289 290 290 290 298 299 300 300 302 303 304 305 305 304 305 305 305 306 306 305 305 305 304 305 305 305 304 304 304 304 305 305 305 305 304 304 304 304 304 303 302 302 303
296 294 292 288 285 290 289 287 289 286 291 292 291 293 293 295 296 297 301 303 300 302 300 301 302 301 300 301 296 296 297 297 294 292 295 294 290 288 294 297 295 289 288 289 287 287 289 294 297 299 302 302 303 304 305 306 305 305 304 303 304 305 305 306 305 305 304 305 305 304 304 304 304 304 304 304 304 305 305 305 305 304 303 303 303 302 303
296 296 295 292 288 290 293 287 289 292 295 296 297 298 297 298 300 303 302 302 300 302 302 304 302 301 297 297 295 296 297 296 291 294 294 289 289 292 296 291 287 288 285 285 286 288 293 296 298 300 302 303 303 304 304 304 305 304 304 305 305 304 305 304 304 304 304 304 304 304 304 304 304 304 304 303 304 305 305 306 307 306 305 303 303 303 303
292 296 296 287 285 289 288 290 297 298 300 301 301 301 301 302 303 301 304 304 304 304 302 301 298 301 301 304 302 294 295 295 291 292 293 291 293 290 288 287 287 289 290 288 289 294 295 298 302 303 303 304 304 304 304 304 305 305 305 304 305 305 304 304 304 304 304 303 303 303 303 303 303 303 303 303 304 304 304 304 305 306 305 303 302 302 302
298 293 291 289 291 292 291 296 296 294 298 300 302 302 302 300 299 301 303 305 304 303 304 302 297 299 295 298 295 293 291 296 289 289 293 291 288 285 286 284 286 285 290 293 294 296 298 301 304 305 305 305 304 305 305 305 305 305 304 304 304 305 306 305 305 305 305 304 304 303 303 303 303 302 302 302 302 303 304 305 305 304 304 303 303 302 301
293 293 295 293 291 293 297 298 295 293 297 299 300 299 301 300 299 302 305 302 302 302 304 302 302 295 295 295 290 292 292 295 292 293 290 288 288 289 288 285 287 288 291 296 297 299 301 302 303 304 304 304 304 304 304 305 303 306 305 305 304 304 304 304 304 304 304 303 304 303 303 304 302 302 302 302 303 304 304 304 304 303 303 303 303 302 301
297 294 294 299 294 292 295 291 291 291 294 297 299 299 299 298 299 300 303 302 301 301 297 293 294 293 293 291 289 287 289 296 292 290 290 289 292 290 288 287 290 295 296 299 300 301 302 303 308 302 304 304 304 305 304 305 305 304 304 304 304 304 303 304 303 303 303 303 304 297 302 303 303 303 304 304 303 302 302 302 303 304 303 303 303 302 301
293 290 291 295 298 299 299 299 298 297 297 299 300 301 302 299 301 303 304 302 300 295 292 295 293 291 289 288 290 292 294 292 289 290 288 291 293 290 290 292 296 298 299 299 300 301 301 304 304 304 303 302 303 304 304 304 304 304 304 304 304 303 303 303 303 303 303 303 303 303 303 304 304 305 304 304 304 302 301 301 302 303 304 303 303 303 302
Wind_Speed
15 16 16 17 18 18 17 18 19 20 24 7 6 6 5 7 0 4 6 2 3 4 7 2 1 5 5 6 7 5 0 3 1 2 4 3 1 3 5 6 6 7 5 7 6 8 5 7 5 5 8 9 8 7 8 10 10 6 7 6 7 7 5 4 4 9 4 7 11 5 8 9 4 8 10 9 8 7 6 6 7 6 9 7 3 2 1
15 16 16 16 17 17 17 17 18 16 16 6 8 5 6 7 5 5 3 3 2 5 3 1 3 5 6 5 7 7 5 6 4 4 6 6 4 5 3 5 6 4 4 5 6 6 3 2 7 5 5 7 7 8 7 12 10 8 6 4 7 4 4 5 6 5 5 5 5 2 10 9 6 5 7 7 8 11 9 7 2 3 8 10 4 4 2
15 15 15 16 17 18 18 18 16 15 13 10 4 4 6 7 1 2 4 4 4 6 8 1 4 5 3 4 3 4 2 5 7 6 6 2 5 4 5 4 4 4 3 3 3 6 6 4 5 1 4 6 4 6 4 7 9 7 4 2 6 4 5 5 5 7 7 6 5 7 7 9 7 6 8 8 11 11 9 6 6 4 9 9 6 3 1
13 14 15 16 17 17 18 18 17 15 13 13 4 5 5 5 1 4 5 3 5 1 3 3 5 5 5 1 3 1 5 5 2 4 7 4 4 6 2 2 3 3 5 4 6 5 6 6 4 4 6 5 3 4 4 7 8 5 3 6 2 4 7 7 4 5 5 5 6 6 8 6 8 8 7 9 8 9 9 6 5 6 7 3 3 7 1
12 13 15 16 17 17 18 19 18 16 13 10 3 4 4 6 5 2 3 4 4 3 3 4 2 5 4 2 2 2 2 3 4 4 2 5 4 4 6 4 3 4 4 5 3 4 4 4 4 6 6 4 1 4 1 8 5 8 3 5 3 5 6 3 5 5 7 6 7 5 4 7 6 10 10 7 7 7 7 4 5 8 8 3 4 2 6
11 12 14 15 17 18 19 20 20 19 15 12 4 5 4 5 2 3 3 3 1 2 3 2 6 7 2 4 2 2 3 2 2 3 6 6 3 1 3 1 5 5 5 3 2 5 3 5 3 5 3 8 2 8 3 5 5 7 1 3 3 6 4 6 6 4 9 3 3 3 6 7 7 7 6 5 6 7 6 6 7 6 3 5 7 6 6
12 12 13 15 16 18 19 20 21 21 21 9 4 4 3 3 3 1 4 2 6 8 8 6 3 4 4 2 3 2 2 2 3 2 4 1 5 1 1 1 4 4 1 4 4 1 4 2 3 5 6 5 6 3 6 3 2 5 6 4 5 5 3 7 8 9 5 8 4 1 4 5 6 6 6 6 6 5 6 7 5 6 7 6 6 7 4
10 11 12 14 16 17 19 21 22 22 26 10 4 4 6 5 6 4 1 3 1 3 1 2 2 4 2 0 3 2 3 2 3 1 2 0 2 2 2 2 4 2 2 4 5 7 3 4 6 4 5 6 5 5 5 6 1 4 2 1 4 3 0 3 6 5 7 4 5 0 4 5 8 5 6 6 4 6 6 5 6 6 9 5 6 10 2
9 10 12 14 15 16 18 20 22 24 20 3 3 2 6 5 5 3 5 5 4 3 3 4 6 3 5 3 5 3 4 2 3 2 4 2 1 2 1 6 4 2 1 2 3 3 5 0 1 4 1 3 6 5 4 6 7 6 3 3 3 5 4 8 8 4 2 5 2 1 3 5 6 8 5 4 6 7 5 4 6 6 7 8 9 7 4
9 9 11 13 14 15 17 19 21 23 22 4 6 4 8 6 4 5 4 4 5 4 5 5 3 3 2 2 7 3 4 1 5 2 2 4 3 1 3 4 3 4 2 2 3 2 2 4 5 1 5 5 2 5 5 6 5 5 5 4 5 5 6 4 5 4 4 8 5 2 3 5 6 4 3 4 5 6 6 5 5 6 5 6 4 5 2
6 8 10 12 12 14 16 18 19 21 13 7 6 6 7 7 6 6 4 5 2 5 5 5 7 4 5 6 4 2 2 5 5 1 1 2 3 5 5 3 3 3 4 4 1 3 3 5 5 5 6 5 6 2 3 3 3 5 4 3 4 4 4 4 5 4 5 2 2 6 5 6 2 1 7 4 4 6 8 7 7 4 3 6 5 3 4
5 7 9 10 12 13 15 16 17 17 13 6 5 5 5 6 6 5 5 3 3 4 5 5 7 6 6 6 3 3 3 3 3 2 1 2 4 4 4 2 3 0 3 3 1 2 3 4 5 4 5 5 6 5 5 2 2 2 4 5 4 5 4 4 6 4 4 6 6 4 5 3 5 4 5 4 2 4 5 8 8 10 7 6 6 4 4
3 5 7 9 11 13 14 15 16 16 16 9 7 5 6 6 5 5 6 6 4 4 6 3 8 5 2 6 4 5 3 4 4 4 2 4 4 2 1 3 1 3 0 1 1 2 5 5 5 5 6 6 7 8 8 6 5 1 3 5 4 3 3 3 4 3 4 4 3 5 3 4 7 5 6 3 1 4 3 6 8 8 7 4 3 2 3
1 3 6 7 10 12 13 14 15 16 16 12 6 6 6 7 6 5 4 3 4 6 6 2 4 4 5 5 5 5 5 3 4 1 3 3 3 4 3 3 4 4 2 2 2 2 4 3 3 5 6 7 7 7 8 7 6 5 4 2 0 3 6 3 4 4 5 3 5 6 4 6 6 4 3 1 3 6 5 5 8 6 1 4 4 4 2
2 2 4 7 8 10 12 13 14 15 15 15 6 7 4 6 5 4 5 5 4 8 8 4 3 7 6 6 6 5 4 5 3 3 5 4 4 3 5 5 4 2 4 4 3 4 3 3 3 3 4 3 3 2 4 5 8 8 4 1 1 2 5 5 4 1 2 5 6 5 4 5 4 2 7 4 4 2 3 3 9 8 1 4 5 2 4
3 0 3 5 7 9 11 12 14 15 15 18 7 6 4 5 5 5 5 5 5 3 2 8 9 2 5 5 6 6 4 4 4 4 5 6 5 5 3 6 3 3 4 4 3 3 2 2 2 2 3 4 2 3 2 4 3 10 6 6 2 3 3 4 3 4 4 4 5 4 5 2 5 8 5 5 1 1 2 4 2 8 4 7 3 4 7
5 2 1 3 5 8 10 11 13 14 14 15 7 7 4 6 5 5 4 4 5 5 8 5 6 4 2 5 4 6 5 3 6 4 3 6 7 7 7 6 5 3 4 4 4 4 3 3 5 6 7 10 4 1 6 7 6 5 9 7 7 5 5 3 4 4 6 5 4 5 3 1 5 6 5 4 6 1 4 4 2 5 7 9 9 8 8
6 4 2 3 4 6 9 10 12 13 14 15 8 5 4 4 5 5 4 5 4 6 8 2 4 4 3 5 5 5 2 5 3 4 5 5 8 8 8 7 5 5 3 4 3 2 3 3 4 4 5 5 1 3 4 6 4 4 6 4 4 6 4 3 5 4 6 4 5 4 2 3 6 6 5 3 3 3 2 2 4 4 8 5 4 6 6
7 5 3 2 2 5 7 9 11 13 13 15 10 7 3 3 4 4 4 5 4 3 1 7 7 8 5 6 7 6 3 4 4 3 2 5 5 7 9 7 3 3 6 3 4 3 3 4 5 6 5 5 3 3 3 4 4 3 4 6 4 5 2 4 5 6 5 4 4 3 1 5 4 3 5 1 1 2 3 2 5 1 4 5 6 8 8
7 6 4 2 3 4 6 8 10 12 13 14 9 5 4 4 3 4 5 4 5 6 8 4 2 6 2 7 4 5 3 3 5 5 3 3 5 7 5 3 6 5 5 4 4 4 4 4 5 4 6 7 3 7 4 8 5 6 6 4 3 1 2 3 5 6 3 3 5 6 3 1 2 5 3 2 1 4 2 3 3 4 7 7 6 4 5
8 7 5 3 3 3 5 7 9 11 13 13 10 5 3 5 1 2 3 5 5 4 2 9 9 9 7 4 7 6 6 5 3 6 4 7 3 5 3 3 4 5 3 3 3 4 3 3 6 5 6 5 3 1 4 4 9 2 5 2 4 5 3 3 3 6 4 4 4 2 0 2 5 3 3 1 2 6 6 7 9 7 4 7 7 7 7
8 8 5 4 3 3 4 6 8 11 12 13 13 5 6 3 3 3 3 3 5 4 5 9 8 9 8 8 4 5 6 5 4 4 5 4 3 5 1 2 4 4 3 4 4 5 4 5 4 4 6 7 4 4 8 5 5 6 3 3 4 4 2 2 3 4 3 3 5 5 5 2 6 5 3 5 5 3 3 4 6 7 6 3 6 4 4
9 8 6 5 3 2 4 5 7 10 12 13 11 4 6 4 4 5 5 5 5 7 8 9 8 8 8 9 8 8 9 0 1 4 3 4 1 4 7 3 5 3 2 1 5 5 5 7 5 5 4 5 5 7 10 9 5 4 4 10 3 6 4 3 2 4 3 7 9 2 3 3 5 2 4 5 6 6 2 4 6 6 5 4 6 7 6
10 9 7 5 3 1 2 4 6 9 11 11 7 5 5 5 6 6 4 5 4 4 6 7 6 4 7 10 10 10 8 5 6 2 3 3 2 0 4 4 5 1 3 2 4 4 4 4 5 4 4 6 7 6 5 5 5 4 6 1 4 9 9 5 3 2 3 2 7 4 6 6 3 3 4 3 4 6 3 5 5 4 3 3 3 5 6
10 10 8 6 3 2 2 3 6 8 9 11 11 8 8 7 4 2 5 2 2 2 3 1 4 7 2 5 6 5 8 5 6 5 3 3 4 5 4 4 3 5 4 5 3 3 2 5 6 5 5 6 6 6 5 6 4 8 3 2 6 4 3 5 5 5 6 5 7 7 8 7 6 5 2 6 5 3 3 3 5 6 3 3 5 5 6
11 10 8 7 5 4 3 3 4 7 9 11 9 5 5 5 7 4 4 5 5 4 3 4 3 6 2 4 7 5 4 8 5 5 7 7 6 4 2 3 1 2 2 0 2 2 3 3 3 5 5 3 2 4 5 6 6 1 4 7 5 5 4 3 4 6 6 9 7 7 6 2 4 11 6 3 4 6 5 6 5 3 3 4 6 5 6
11 10 9 8 6 5 3 3 5 7 9 10 7 6 6 5 4 4 4 5 5 2 4 4 6 4 4 7 4 3 2 2 4 5 5 6 8 6 3 2 2 1 2 3 3 3 2 4 4 7 6 4 2 5 5 6 4 4 4 4 8 3 7 6 6 5 4 2 5 6 3 2 6 6 2 3 7 5 3 1 1 4 6 5 6 6 4
11 11 9 8 7 5 4 4 5 8 8 10 8 7 6 5 4 3 2 4 4 3 5 5 6 7 6 11 5 4 5 6 6 6 6 6 7 5 5 5 5 4 4 3 3 3 4 5 8 5 7 4 3 5 5 5 5 7 8 9 7 7 5 5 4 3 4 8 8 4 2 5 5 4 5 4 4 8 7 2 1 4 6 5 5 6 6
12 11 10 8 7 5 4 4 5 8 10 9 6 6 6 5 5 1 1 2 3 5 5 6 8 7 5 3 3 5 7 6 7 7 6 7 8 6 5 5 5 5 6 4 3 3 4 5 4 6 1 5 2 4 4 5 4 5 8 7 4 3 3 3 6 8 8 8 6 5 3 5 5 7 7 5 6 7 7 7 6 6 5 4 3 5 7
13 12 11 9 8 6 4 3 5 8 9 6 5 4 4 5 4 1 4 2 3 3 3 3 3 2 3 3 7 6 5 7 7 8 9 7 7 6 6 6 7 6 6 4 3 4 4 4 5 5 4 3 3 3 3 5 6 7 6 10 8 6 4 4 5 6 6 6 7 6 6 5 7 6 5 6 7 8 7 6 4 6 5 5 7 7 7
13 13 12 10 8 6 4 4 6 8 9 5 5 2 3 3 5 5 5 2 2 4 3 3 5 6 7 3 0 5 7 7 7 7 9 7 6 6 7 6 6 6 4 4 4 5 2 5 3 4 3 5 2 4 6 7 7 8 8 4 8 6 3 3 5 3 4 6 5 4 4 6 7 8 8 6 6 2 3 2 7 3 3 4 6 6 5
13 13 12 10 8 6 5 5 7 7 5 6 4 2 4 4 4 6 6 4 3 4 3 3 3 3 3 3 6 5 7 7 7 6 6 5 6 5 8 6 5 6 5 4 4 3 4 3 5 4 6 7 6 5 6 8 7 9 8 7 4 5 4 6 7 8 6 6 7 7 8 7 6 6 5 3 7 4 4 1 2 2 6 6 6 7 8
14 13 12 10 8 7 6 6 8 6 6 10 14 12 11 10 7 6 5 4 4 3 3 3 3 3 2 2 3 6 7 5 6 5 6 6 7 6 6 4 4 4 6 2 3 4 3 4 4 6 2 9 3 3 7 9 9 10 11 10 10 10 9 6 9 9 12 8 5 7 7 7 7 7 8 8 4 4 6 5 5 6 7 7 8 8 8
14 13 11 10 9 7 6 7 8 9 11 6 4 5 6 9 5 7 5 4 4 4 2 2 2 3 4 3 6 6 8 6 6 7 5 7 6 5 4 5 4 3 4 5 3 4 4 4 3 4 4 4 5 4 6 10 10 12 11 10 9 9 8 7 8 8 6 6 6 8 9 8 7 6 6 8 6 4 5 4 3 5 7 8 7 7 8
14 13 12 10 8 5 6 6 5 5 4 5 1 7 6 7 4 2 3 4 3 2 1 3 2 3 4 3 4 5 8 6 7 7 5 5 5 6 4 3 4 3 3 5 4 4 4 4 5 4 7 5 4 5 7 8 9 9 10 10 10 10 9 9 9 7 8 8 8 7 7 6 7 7 8 8 8 6 9 9 8 7 6 7 8 8 7
14 13 12 9 7 6 4 5 4 5 6 4 5 6 8 7 5 3 5 5 5 4 2 3 3 5 5 4 5 3 5 8 7 5 7 4 7 5 6 4 6 8 5 4 4 5 5 5 2 6 5 5 6 6 8 8 11 11 10 9 11 9 7 9 9 10 8 4 7 8 9 10 10 9 9 10 10 10 8 6 6 5 6 7 7 8 8
15 13 11 7 4 2 4 4 5 3 2 4 4 6 4 4 3 4 5 5 5 4 5 3 4 7 7 7 1 4 6 4 6 6 6 5 4 3 4 3 6 2 3 5 5 5 7 4 5 6 5 7 6 8 9 10 10 10 10 9 10 10 7 7 7 6 6 5 5 6 8 7 7 6 7 7 7 7 6 6 6 6 8 8 7 8 7
16 13 6 4 4 1 1 4 4 8 10 7 4 5 4 4 2 2 3 3 4 5 4 4 6 7 7 7 6 5 5 4 6 5 4 4 3 3 3 2 3 2 6 4 5 6 5 5 5 7 6 10 11 11 11 11 9 9 12 12 11 10 9 7 6 5 4 6 8 9 8 8 8 7 7 7 7 7 5 4 5 6 6 6 7 6 7
13 6 5 5 3 3 1 6 6 11 5 3 2 1 2 1 2 2 3 3 2 4 4 7 8 8 8 8 6 6 5 3 4 6 4 7 3 3 3 3 2 2 4 3 5 8 6 5 5 5 8 8 8 10 11 13 13 11 9 8 8 8 6 4 3 5 6 7 7 7 7 7 7 7 6 7 5 5 5 5 6 7 8 8 8 7 6
7 7 5 4 4 3 6 5 6 6 5 3 3 2 1 2 3 2 3 3 3 3 3 5 8 9 10 10 9 6 6 5 5 5 5 3 2 3 4 3 2 3 4 4 2 4 4 5 4 5 7 8 11 13 13 11 9 7 8 8 8 4 0 4 6 5 5 5 5 6 5 6 8 7 6 7 8 7 5 6 7 8 8 6 3 3 5
8 6 6 4 5 6 5 6 6 4 3 3 1 1 1 2 4 2 1 4 3 2 5 6 5 8 9 10 9 7 6 4 3 6 3 4 4 3 2 3 0 3 3 4 2 2 2 4 4 6 6 7 8 8 6 5 7 5 5 4 2 2 3 5 6 7 6 6 7 7 7 7 7 6 6 6 7 7 7 7 7 8 8 8 6 5 5
10 4 2 6 7 7 7 5 2 2 1 1 1 2 2 2 1 2 3 3 4 2 6 7 9 8 8 10 8 7 3 3 3 2 3 2 2 3 2 3 1 2 3 1 2 3 3 4 5 6 7 9 9 9 10 11 9 8 5 2 3 2 3 6 8 8 7 6 7 8 7 9 9 6 5 6 7 8 7 7 7 6 6 6 5 7 7
5 7 4 7 4 4 3 2 3 1 1 0 0 2 3 3 4 4 3 3 2 4 3 6 3 1 3 2 7 1 3 1 2 2 2 2 3 1 2 3 2 4 4 4 4 4 5 5 5 6 6 7 7 9 8 3 2 3 4 1 2 2 4 7 8 9 9 9 8 7 6 7 7 7 6 7 7 9 8 7 7 7 8 7 7 5 6
6 5 5 3 4 2 2 2 3 1 2 2 3 5 4 4 4 4 3 3 5 6 5 7 6 5 4 5 4 3 3 3 0 1 3 2 1 1 1 3 4 4 2 3 3 6 5 4 7 8 9 8 7 7 4 3 4 3 2 3 6 7 6 6 8 8 9 9 9 8 8 8 8 9 9 8 7 8 8 8 6 4 5 5 7 8 9
6 4 3 3 2 3 1 1 3 2 5 5 3 4 4 5 6 8 8 4 5 3 7 5 4 6 6 6 3 1 1 2 2 2 2 3 3 3 3 3 2 2 3 5 4 5 4 6 7 9 10 11 10 8 6 4 6 7 5 5 6 7 7 7 8 8 8 8 8 8 9 9 9 8 8 9 9 8 8 7 7 7 7 6 7 9 8
5 6 6 4 2 4 3 2 3 4 4 4 5 7 8 7 6 7 5 4 3 3 4 5 5 5 5 5 3 2 3 3 3 3 3 2 3 4 3 1 1 4 4 5 5 8 6 8 9 10 9 11 10 8 9 4 2 2 2 5 6 7 7 7 8 10 9 7 7 8 9 9 9 9 9 9 10 9 8 7 6 7 6 6 5 6 8
4 4 3 2 2 3 3 4 6 4 4 7 9 9 9 8 2 7 4 1 3 2 2 2 4 5 3 5 1 0 2 1 3 2 2 3 3 1 0 3 4 3 4 5 5 4 6 8 8 11 7 5 2 4 3 3 4 3 4 5 5 7 8 9 10 11 9 8 9 9 9 8 8 8 8 9 8 8 8 6 5 5 5 6 7 7 6
6 4 4 3 4 4 9 6 5 7 9 6 6 9 8 4 1 4 4 3 1 1 4 4 5 3 2 3 3 3 4 3 3 3 3 3 1 3 2 2 3 3 3 4 6 7 8 9 3 7 7 5 4 0 3 5 6 7 6 6 7 9 9 11 11 10 10 12 10 9 10 11 10 10 9 9 9 9 8 8 6 5 5 6 7 7 7
4 4 4 3 2 3 5 8 8 9 8 7 5 3 2 3 5 2 3 2 2 3 4 5 4 3 3 3 3 3 4 4 3 3 3 3 3 3 3 2 3 6 5 6 7 7 9 3 3 3 5 3 2 4 4 4 4 5 6 8 8 7 6 6 6 7 7 7 9 9 10 9 10 12 12 11 12 11 9 7 7 7 6 7 8 8 7
3 4 4 4 3 4 5 8 9 9 8 7 7 7 5 4 5 3 4 2 1 2 2 2 4 2 3 3 3 3 3 3 3 2 3 5 4 3 3 5 5 3 4 6 7 7 7 1 6 3 2 2 2 4 6 9 9 6 6 7 9 9 9 8 9 9 10 11 11 11 12 11 13 12 11 11 11 10 9 9 9 9 9 8 8 6 6
2 3 4 6 6 3 5 6 7 7 7 8 7 6 6 7 7 6 5 3 3 2 1 2 2 2 2 2 2 2 2 1 3 5 4 4 3 4 6 6 5 6 7 7 8 7 6 3 1 1 3 5 4 2 3 5 7 8 8 7 8 8 9 10 12 12 13 14 14 12 13 13 12 13 11 9 9 11 13 13 10 7 6 5 4 5 6
3 4 5 7 9 8 5 6 6 7 7 6 5 6 6 8 6 7 6 5 5 4 4 3 3 3 2 3 3 1 1 1 4 3 5 4 3 4 5 6 7 7 8 8 7 5 6 5 4 4 6 7 7 6 4 5 8 8 9 10 10 10 11 11 12 12 13 13 13 12 12 12 13 11 10 10 10 12 13 12 10 9 5 4 5 6 7
Wind_Direction
338 341 340 341 343 342 340 346 351 353 346 346 7 316 253 242 161 115 168 172 278 283 275 73 308 72 86 115 106 154 27 16 118 201 0 63 16 13 18 24 357 65 345 348 337 12 21 2 1 47 59 65 35 20 1 343 321 29 24 354 34 333 264 317 313 318 99 131 151 113 21 335 359 40 36 1 11 22 350 316 322 323 355 355 332 85 200
339 341 339 340 343 341 340 344 352 353 8 350 308 283 274 283 97 162 135 121 265 273 264 138 83 93 79 51 63 17 40 356 75 52 54 12 51 23 39 62 28 21 347 321 7 19 346 34 6 68 50 69 48 46 25 349 45 358 44 327 13 319 6 321 298 289 255 181 149 105 21 1 17 355 11 11 9 358 347 302 320 300 37 348 331 50 105
339 340 338 340 341 342 341 344 347 352 348 347 312 307 311 305 289 80 133 185 232 305 346 128 129 123 130 122 110 125 102 43 19 38 71 36 35 294 68 352 2 15 313 337 330 49 355 4 44 287 82 82 100 93 31 22 52 40 31 337 313 283 298 331 336 352 350 8 346 350 352 351 311 25 350 9 1 2 344 349 350 344 11 14 26 83 96
340 337 338 339 340 340 341 341 344 345 349 335 278 288 298 281 229 139 156 204 222 278 288 10 129 130 135 166 93 37 107 130 64 322 100 49 63 26 323 105 9 12 339 22 3 42 54 1 11 318 80 107 103 353 158 81 34 49 349 312 321 304 324 317 0 329 335 351 1 338 9 321 331 349 7 360 349 4 344 337 17 2 331 42 23 346 30
338 337 339 339 340 340 340 341 340 343 341 350 301 273 245 303 281 139 188 157 233 155 206 97 199 144 164 146 165 149 100 95 115 329 102 101 95 82 10 357 357 25 28 351 333 16 42 50 357 12 345 85 335 141 5 81 105 140 231 241 263 279 293 84 321 336 288 349 316 1 304 293 323 347 341 353 333 0 352 3 3 359 318 93 44 341 342
338 337 337 340 340 341 341 341 340 338 337 333 270 289 221 261 59 352 31 313 135 192 149 213 68 92 238 87 196 158 148 154 108 146 65 115 74 315 139 76 21 30 20 328 9 331 54 23 37 300 34 304 187 166 270 131 123 216 122 24 298 329 309 56 314 320 321 340 283 347 357 327 324 318 312 294 355 322 348 333 347 339 350 332 346 346 4
338 337 339 341 340 342 343 342 340 338 332 325 248 295 311 273 349 12 14 300 55 27 39 52 89 138 320 85 214 170 183 179 93 48 109 289 131 309 60 336 70 36 2 339 316 356 318 9 9 358 350 3 350 41 174 113 100 39 54 337 38 330 315 356 323 317 278 252 168 22 310 310 294 286 292 322 315 315 312 322 337 328 303 304 318 310 344
336 341 343 344 342 343 346 343 345 341 336 316 239 262 311 18 352 21 154 290 72 151 120 116 187 187 148 212 192 210 184 182 70 53 126 81 93 110 95 134 89 85 326 325 8 41 24 358 1 36 319 313 13 354 21 345 78 49 94 281 103 301 292 35 317 289 274 125 117 353 281 295 287 276 286 304 306 315 320 316 314 332 297 307 335 313 324
339 344 347 346 346 347 346 347 349 342 346 318 290 8 29 332 317 342 316 275 127 164 202 195 233 172 166 239 135 237 181 182 152 94 51 139 164 120 154 87 89 125 235 338 19 14 24 50 20 318 338 318 15 327 7 339 327 346 344 79 311 220 305 310 277 263 314 127 197 187 278 287 283 285 291 281 306 312 324 337 328 310 310 323 314 301 16
339 345 350 348 351 352 350 352 353 350 332 316 335 358 4 320 272 242 278 286 100 246 165 230 235 248 181 152 131 196 179 223 146 68 285 33 60 216 70 131 268 150 206 169 55 10 283 290 347 272 265 276 240 295 355 10 345 346 326 9 310 12 320 305 326 329 323 146 263 101 307 280 266 357 320 204 261 242 253 258 266 268 298 287 289 300 304
341 349 350 350 355 355 355 356 357 360 352 24 350 359 5 7 335 333 288 279 210 243 195 200 230 78 91 117 156 223 200 172 147 195 129 193 98 68 98 128 287 358 86 52 15 311 283 296 277 273 277 264 287 238 259 200 277 12 323 314 333 317 314 303 311 298 311 116 359 301 275 298 8 94 40 27 356 334 315 299 314 307 217 265 290 304 339
331 355 349 351 357 358 358 357 358 2 4 332 315 310 22 335 311 269 276 263 270 227 243 217 216 143 211 128 200 180 220 162 188 75 90 142 92 89 101 159 298 47 67 25 335 225 266 233 252 247 246 266 257 259 247 254 312 339 314 318 339 311 326 303 324 306 290 313 282 294 290 356 104 97 61 58 7 340 313 311 304 301 306 291 287 339 327
322 349 349 351 358 358 358 357 358 358 359 341 318 332 8 340 308 311 309 292 281 235 220 193 83 96 157 144 209 190 220 188 92 93 348 145 145 128 249 12 253 81 200 106 123 261 260 268 259 265 249 223 231 225 240 214 223 210 302 6 347 319 297 307 298 276 269 273 283 274 348 153 151 97 117 92 177 181 285 273 270 269 272 249 289 317 281
301 350 347 353 357 359 356 356 356 355 355 351 326 323 344 5 347 329 313 302 278 304 278 228 140 170 161 177 194 192 168 153 106 170 188 170 186 199 181 197 81 98 185 119 282 274 268 251 273 259 237 212 208 237 236 219 198 204 218 163 166 294 303 292 299 333 313 322 297 290 299 158 127 156 167 114 10 18 342 319 295 322 329 304 278 230 245
197 350 335 349 358 356 355 354 354 355 352 345 304 293 350 20 352 331 321 299 300 301 288 241 200 180 178 183 197 186 188 171 181 196 206 171 214 199 204 139 127 169 92 256 222 224 263 295 285 272 290 273 291 297 136 223 173 186 164 166 202 287 285 349 330 319 333 308 317 308 320 312 164 220 92 83 84 360 322 287 288 253 78 44 17 307 250
207 212 315 340 356 355 355 354 354 355 356 347 312 305 65 22 330 292 296 302 313 285 51 8 4 123 161 190 194 220 198 194 216 207 195 179 210 165 147 113 131 127 200 213 255 291 307 305 275 281 275 267 274 310 285 326 255 153 163 182 244 203 268 268 284 292 289 296 301 305 299 56 56 112 106 88 341 71 333 284 322 40 97 130 242 310 346
203 193 282 343 355 351 354 354 353 355 354 359 337 318 34 31 360 343 323 279 255 274 319 341 3 342 209 164 168 232 238 225 191 219 201 202 199 192 144 132 106 220 222 273 264 245 222 213 250 267 268 279 302 12 294 234 244 196 183 223 224 218 205 205 245 258 244 263 285 300 332 50 121 129 124 90 73 107 289 285 93 309 19 360 15 7 14
198 188 247 309 334 346 355 352 352 351 352 351 332 315 332 51 11 326 275 256 275 286 277 328 178 236 259 344 211 185 272 267 244 233 264 211 184 197 159 153 178 199 234 248 267 255 256 260 264 263 279 291 63 272 261 1 306 287 263 286 246 193 225 209 262 277 293 256 265 285 99 75 101 100 91 74 90 355 264 300 45 1 343 326 310 313 326
191 189 232 283 310 348 349 351 351 348 351 352 333 279 206 18 15 342 304 283 256 256 291 71 328 321 321 282 357 349 175 297 289 269 231 265 190 187 161 176 233 180 179 234 232 246 254 257 246 266 274 292 223 247 263 263 293 285 221 258 276 284 284 258 228 241 264 316 303 291 340 69 87 90 102 55 246 283 357 93 231 341 281 314 345 349 325
191 191 214 247 290 329 341 346 349 345 347 355 345 312 330 21 44 355 347 323 313 284 297 14 5 262 283 286 256 235 211 207 263 278 241 246 107 147 135 209 180 263 204 204 247 247 259 259 267 272 263 271 320 2 299 276 260 247 303 87 297 3 298 301 309 325 304 322 308 313 295 110 258 126 166 61 313 16 6 316 291 299 322 328 311 274 292
189 192 209 240 261 314 336 345 351 341 343 350 348 316 308 129 259 47 315 319 302 308 246 41 346 336 344 316 348 359 335 359 339 245 286 289 137 161 212 211 219 173 219 184 225 228 211 258 257 244 248 240 239 202 300 318 299 331 215 317 286 89 280 288 317 47 322 310 309 7 155 183 160 207 307 113 6 12 351 348 325 15 350 302 313 330 34
187 186 204 215 248 311 322 340 343 337 339 344 338 287 279 98 12 32 331 298 277 265 300 334 310 299 304 310 314 307 322 346 356 354 338 342 140 207 315 77 295 176 227 192 216 262 218 245 249 271 292 307 308 250 244 268 272 104 226 138 264 101 2 38 296 342 295 308 314 349 13 121 176 217 280 309 312 306 301 306 284 284 281 315 284 316 12
181 190 195 205 233 270 325 334 339 336 335 340 340 294 323 357 31 5 299 282 251 261 278 275 266 266 260 261 265 264 256 96 320 333 20 320 233 216 260 221 234 289 298 235 294 313 313 338 310 333 307 268 299 311 315 317 303 244 244 162 208 144 133 141 265 271 22 296 267 298 251 306 313 225 230 237 242 257 264 305 310 308 333 352 329 341 314
179 190 194 192 210 275 311 322 328 333 330 332 334 314 320 340 325 327 291 256 281 303 290 254 257 242 242 254 228 213 234 240 256 357 53 345 311 252 215 267 353 101 263 53 62 309 353 327 322 346 289 303 322 290 280 275 274 319 339 207 225 154 146 148 242 321 317 314 98 259 274 147 204 254 286 286 295 291 278 268 272 285 5 30 324 309 308
181 191 194 180 181 205 270 314 323 321 321 325 323 273 257 273 247 319 321 320 310 299 301 328 226 250 313 21 353 202 202 245 220 207 216 236 273 280 340 45 338 10 30 25 49 298 251 272 277 260 265 243 233 261 263 295 311 37 293 281 289 85 42 274 252 271 270 278 293 297 291 254 214 215 244 315 323 293 287 304 51 45 20 327 311 307 293
181 186 176 169 172 199 237 266 316 320 318 321 320 305 308 313 25 349 272 269 266 260 276 274 262 150 293 249 233 249 222 209 193 200 231 239 243 273 4 84 101 6 308 144 294 293 274 255 243 268 284 292 179 255 269 286 325 289 249 286 30 113 147 273 319 294 300 289 308 354 337 346 35 46 7 317 306 314 52 54 3 332 315 319 316 319 323
177 173 163 161 180 192 216 268 300 304 309 314 311 291 289 302 304 308 337 336 326 235 224 244 258 177 227 238 236 204 172 178 193 219 205 222 212 130 170 226 254 211 243 244 238 264 259 259 263 260 241 284 28 282 316 288 284 293 279 268 137 218 251 266 256 253 256 321 41 330 313 320 338 11 358 321 317 351 40 341 326 310 300 301 305 326 339
170 162 158 160 181 186 208 264 283 309 309 304 282 272 283 289 298 318 335 321 291 305 325 319 319 3 341 278 245 186 192 221 227 216 218 207 221 206 184 201 225 245 217 220 223 210 237 243 238 235 264 236 234 257 236 261 282 267 264 273 276 248 259 268 269 285 300 354 332 14 322 312 309 357 358 9 308 292 292 254 266 281 273 293 326 313 314
162 159 155 163 175 180 202 243 291 301 316 313 278 270 254 246 273 274 235 266 282 299 296 300 296 280 272 52 119 223 216 226 214 219 214 214 211 202 192 216 215 216 239 231 242 253 238 244 256 278 258 18 337 258 262 247 230 250 259 261 229 256 13 328 301 308 296 307 341 5 337 304 341 332 317 305 277 266 284 320 305 280 296 347 324 284 276
162 158 157 163 165 178 212 251 287 294 309 295 274 249 238 172 190 115 53 7 319 293 290 299 283 276 68 160 224 246 226 196 219 213 214 219 207 205 207 207 217 226 243 227 222 235 243 254 247 230 136 170 260 321 284 278 271 268 250 247 233 183 164 211 233 234 273 322 326 327 323 304 267 268 311 310 303 307 307 297 17 29 14 341 305 297 300
162 158 157 158 163 177 207 253 278 298 298 270 267 230 223 184 120 47 12 292 268 285 284 275 270 320 309 265 201 238 224 196 219 209 223 211 220 216 232 215 207 215 220 230 219 242 258 250 241 221 189 178 203 256 259 260 265 264 269 333 22 1 314 321 351 332 253 235 254 291 303 293 309 313 285 271 279 60 30 64 94 82 70 312 282 281 281
161 158 156 153 162 175 208 244 277 292 278 264 273 342 18 17 19 334 333 299 297 248 245 267 280 258 268 243 205 230 237 213 202 205 218 198 220 217 238 213 213 197 233 236 233 239 232 267 276 268 256 139 149 247 258 262 260 260 281 297 307 299 250 192 208 245 260 237 227 237 245 250 242 252 280 26 1 103 145 343 340 184 173 225 260 283 297
158 154 150 151 159 182 207 243 266 278 286 311 307 260 249 262 295 304 273 266 242 250 265 272 268 313 265 10 117 187 223 181 208 187 212 181 233 194 225 181 247 224 99 19 234 249 230 222 222 253 217 121 192 230 250 245 250 259 273 277 250 229 241 287 283 237 220 237 283 270 267 271 277 280 293 278 234 296 323 307 265 245 249 262 281 298 296
151 148 147 153 168 184 215 243 263 285 277 267 246 204 175 180 222 250 300 285 275 268 247 256 252 245 264 107 263 165 189 198 203 175 218 163 234 194 215 198 205 249 168 205 211 237 238 263 228 242 155 186 226 248 246 253 260 268 273 281 287 289 280 263 252 271 267 268 284 303 306 307 311 304 270 275 275 217 246 240 249 274 269 276 285 285 280
144 146 150 156 169 186 233 263 272 238 255 241 269 78 107 174 269 167 201 283 255 199 208 235 264 265 258 244 258 172 177 208 213 179 231 170 196 226 197 209 169 211 206 188 250 229 247 226 216 234 242 235 225 225 233 248 256 261 255 253 266 276 261 248 251 272 282 274 283 290 305 328 323 291 285 286 287 258 215 213 215 233 274 279 285 286 297
142 145 148 151 161 208 233 214 232 243 221 256 99 141 155 187 210 223 225 266 283 300 234 223 207 238 246 251 240 131 160 220 232 209 218 179 165 232 259 232 237 189 202 193 229 217 230 230 225 242 231 239 235 238 244 236 256 266 271 267 266 271 279 291 295 274 251 297 308 306 308 304 294 307 314 307 299 295 297 314 312 308 280 284 281 285 285
141 139 137 154 193 213 229 239 194 226 36 71 114 121 182 243 188 223 211 239 213 219 262 279 243 234 227 252 306 143 201 216 201 226 199 203 206 147 212 238 252 288 195 219 229 239 240 204 225 241 239 242 253 249 248 243 248 260 273 278 280 280 294 319 304 325 333 312 299 293 281 278 281 269 270 263 258 273 298 301 291 274 264 262 263 268 282
134 140 150 173 191 219 226 201 153 117 98 70 125 160 165 220 203 192 200 229 202 195 229 238 261 269 271 258 272 137 196 224 166 219 200 181 192 192 156 253 255 232 246 256 247 215 246 242 240 249 249 239 243 254 268 278 267 236 236 241 248 254 255 264 316 315 278 262 254 253 255 269 260 243 250 283 311 305 280 271 281 288 289 282 277 284 286
140 161 216 203 200 212 186 99 131 143 128 153 249 276 199 190 224 224 192 202 184 217 213 233 239 237 253 246 230 136 255 289 207 208 234 139 224 203 149 217 209 252 268 257 245 189 225 208 243 247 257 259 257 248 246 250 258 274 285 297 302 304 328 319 266 262 270 275 290 306 322 301 302 305 327 310 254 234 276 281 269 258 254 261 273 284 315
169 167 185 179 220 100 93 143 158 131 183 178 197 250 243 198 222 229 176 205 207 230 201 225 220 230 231 239 238 195 168 215 231 199 220 159 165 256 159 213 240 170 235 227 260 161 239 249 235 235 243 238 250 245 234 242 267 252 226 235 256 280 329 267 275 278 282 281 280 279 293 306 298 295 295 281 290 291 251 230 245 248 247 260 80 22 307
177 183 176 200 147 122 129 129 153 191 187 224 184 181 284 246 216 259 217 226 229 229 192 237 197 207 216 239 251 264 147 241 290 338 294 232 135 239 160 177 213 249 232 235 227 213 247 257 267 265 272 285 287 305 327 224 212 236 265 281 320 316 287 272 266 269 256 248 241 240 242 253 259 258 263 282 287 284 294 295 296 297 301 300 303 314 326
173 182 142 113 109 121 125 140 169 179 234 237 176 226 207 247 213 215 232 241 210 217 206 202 220 219 207 210 219 237 156 208 302 259 242 223 111 248 213 224 158 232 249 230 273 228 218 246 257 260 254 256 258 265 252 247 238 227 217 217 233 241 278 282 279 264 254 261 273 288 311 317 313 303 272 266 277 281 280 276 268 268 286 310 314 282 280
216 298 213 127 151 145 178 165 208 191 165 177 210 250 210 221 215 215 213 217 273 260 160 172 248 152 3 169 203 248 20 66 225 199 244 249 96 252 248 239 248 236 238 277 279 272 259 251 255 262 273 283 292 273 272 341 33 303 295 146 138 143 246 274 270 263 263 274 292 290 272 263 282 302 304 275 274 275 270 264 264 270 265 261 268 293 304
203 197 153 140 149 178 173 196 179 141 210 203 177 208 194 223 213 201 239 204 173 228 186 180 176 185 200 193 222 129 166 168 278 273 225 233 144 175 183 239 226 268 325 246 241 242 251 255 259 278 288 288 269 299 311 201 259 298 306 231 225 232 245 252 263 272 267 260 263 277 293 284 277 275 281 284 275 269 272 272 281 311 322 314 296 286 280
160 150 136 142 178 170 132 199 174 177 208 203 206 227 195 211 210 200 225 177 178 213 154 202 193 193 221 167 228 116 150 204 149 232 229 216 218 210 207 231 240 242 233 250 253 260 255 257 267 267 262 249 240 247 285 259 189 199 230 267 270 263 244 248 265 275 282 295 291 286 280 285 288 289 285 277 275 274 275 275 270 262 258 263 274 282 285
156 154 152 150 180 205 191 196 168 215 222 198 205 214 225 231 240 223 185 131 182 113 170 197 201 207 211 134 216 175 171 201 174 211 236 216 224 227 208 248 272 258 253 245 240 243 248 254 261 258 254 268 264 220 213 227 311 335 227 252 258 259 261 257 252 258 267 279 282 277 279 286 288 284 279 279 277 275 270 263 251 250 257 256 254 267 279
159 172 190 158 171 205 221 216 199 206 202 204 215 217 227 239 266 57 68 182 217 196 224 191 207 225 200 147 197 332 216 189 211 189 218 235 211 236 181 233 228 216 236 246 255 260 270 279 275 272 296 334 44 104 145 176 234 234 247 263 280 283 288 288 290 291 285 269 274 281 284 282 282 290 298 290 277 269 268 265 260 250 250 262 274 273 275
173 184 187 188 203 187 203 225 227 221 237 241 201 211 222 249 239 187 173 184 268 143 182 171 211 172 179 137 218 225 190 187 207 213 199 233 173 233 213 208 240 251 234 247 251 259 266 267 305 49 58 14 15 89 210 215 218 232 256 262 258 261 270 274 277 278 283 282 283 281 278 280 284 286 283 285 291 287 278 272 271 277 277 273 272 269 266
205 191 186 213 220 197 205 216 218 233 217 217 236 237 181 202 224 257 103 157 148 192 185 201 200 166 233 154 204 215 215 170 196 200 173 222 223 207 185 230 215 235 235 238 257 263 261 248 97 80 75 22 345 298 299 298 302 293 279 275 279 276 267 270 278 282 275 273 280 281 284 287 285 287 287 286 283 281 277 272 263 253 242 238 234 237 238
226 207 207 221 216 234 215 190 208 223 222 206 197 209 217 229 231 199 112 160 237 269 148 345 348 258 222 146 206 211 234 184 205 195 191 211 218 222 214 240 228 236 251 241 247 244 267 111 119 119 132 11 35 318 321 315 317 295 251 259 279 292 294 291 281 278 284 290 286 282 282 285 283 282 280 282 284 287 286 274 258 253 248 246 249 241 244
245 243 223 218 225 208 198 206 198 211 217 205 191 201 203 222 217 160 158 177 167 173 118 219 183 228 239 181 226 207 230 197 216 222 225 217 198 219 224 237 246 252 259 258 258 271 294 305 75 239 163 184 220 244 285 282 273 289 302 290 275 276 286 293 295 295 292 288 288 288 286 281 280 281 281 279 277 276 276 275 273 267 266 265 251 248 246
189 205 210 208 228 257 238 217 221 224 231 211 192 203 201 230 178 130 150 182 176 193 198 196 203 208 219 223 208 240 10 195 240 221 226 229 216 229 227 235 252 253 264 276 288 306 321 311 309 324 316 316 321 313 326 313 310 313 318 322 317 307 297 292 289 289 292 293 293 295 297 298 295 287 282 274 266 267 270 271 269 270 269 278 287 289 283